| time (UTC) | temp F | wind direction | speed MPH | gust MPH | rain 1hr in | rain 24hr in | rain mn in | humidity % | barometer mb |
| 20260506210052 | 66 | 313 | 0.0 | 0.0 | 0.00 | 0.00 | 0.00 | 67 | 1021.0 |
| 20260506204544 | 65 | 293 | 0.0 | 0.0 | 0.00 | 0.00 | 0.00 | 67 | 1021.2 |
| 20260506203121 | 65 | 208 | 0.0 | 0.0 | 0.00 | 0.00 | 0.00 | 66 | 1021.3 |
| 20260506201540 | 64 | 91 | 0.0 | 0.0 | 0.00 | 0.00 | 0.00 | 69 | 1021.2 |
| 20260506200047 | 64 | 212 | 0.0 | 0.0 | 0.00 | 0.00 | 0.00 | 69 | 1021.3 |
| 20260506194537 | 64 | 234 | 0.0 | 0.0 | 0.00 | 0.00 | 0.00 | 70 | 1021.4 |
| 20260506193033 | 62 | 77 | 0.0 | 0.0 | 0.00 | 0.00 | 0.00 | 73 | 1021.3 |
| 20260506191530 | 61 | 32 | 0.0 | 0.0 | 0.00 | 0.00 | 0.00 | 72 | 1021.4 |
| 20260506190035 | 60 | 143 | 0.0 | 0.0 | 0.00 | 0.00 | 0.00 | 77 | 1021.7 |
| 20260506184524 | 59 | 203 | 0.0 | 0.0 | 0.00 | 0.00 | 0.00 | 77 | 1021.7 |
| 20260506183021 | 58 | 207 | 0.0 | 0.0 | 0.00 | 0.00 | 0.00 | 79 | 1021.7 |
| 20260506181520 | 57 | 193 | 0.0 | 0.0 | 0.00 | 0.00 | 0.00 | 79 | 1021.6 |
| 20260506180021 | 57 | 207 | 0.0 | 0.0 | 0.00 | 0.00 | 0.00 | 80 | 1021.5 |
| 20260506174519 | 56 | 168 | 0.0 | 0.0 | 0.00 | 0.00 | 0.00 | 80 | 1021.7 |
| 20260506173018 | 56 | 235 | 0.0 | 0.0 | 0.00 | 0.00 | 0.00 | 80 | 1021.8 |
| 20260506171517 | 56 | 28 | 0.0 | 0.0 | 0.00 | 0.00 | 0.00 | 81 | 1021.4 |
| 20260506170016 | 55 | 335 | 0.0 | 0.0 | 0.00 | 0.00 | 0.00 | 81 | 1021.6 |
| 20260506164617 | 55 | 219 | 0.0 | 0.0 | 0.00 | 0.00 | 0.00 | 84 | 1021.6 |
| 20260506163032 | 55 | 201 | 0.0 | 0.0 | 0.00 | 0.00 | 0.00 | 83 | 1021.6 |
| 20260506161516 | 54 | 192 | 0.0 | 0.0 | 0.00 | 0.00 | 0.00 | 85 | 1021.3 |
| 20260506160014 | 53 | 188 | 0.0 | 0.0 | 0.00 | 0.00 | 0.00 | 85 | 1021.1 |
| 20260506154528 | 53 | 221 | 0.0 | 0.0 | 0.00 | 0.00 | 0.00 | 84 | 1021.4 |
| 20260506153013 | 53 | 320 | 0.0 | 0.0 | 0.00 | 0.00 | 0.00 | 84 | 1021.6 |
| 20260506151514 | 53 | 247 | 0.0 | 0.0 | 0.00 | 0.00 | 0.00 | 83 | 1021.7 |
| 20260506150011 | 53 | 274 | 0.0 | 0.0 | 0.00 | 0.00 | 0.00 | 85 | 1021.6 |
| 20260506144510 | 53 | 205 | 0.0 | 0.0 | 0.00 | 0.00 | 0.00 | 86 | 1021.2 |
| 20260506143008 | 52 | 172 | 0.0 | 0.0 | 0.00 | 0.00 | 0.00 | 87 | 1020.7 |
| 20260506141508 | 52 | 64 | 0.0 | 0.0 | 0.00 | 0.00 | 0.00 | 88 | 1020.5 |
| 20260506140012 | 51 | 63 | 0.0 | 0.0 | 0.00 | 0.00 | 0.00 | 87 | 1020.5 |
| 20260506134506 | 52 | 63 | 0.0 | 0.0 | 0.00 | 0.00 | 0.00 | 88 | 1020.6 |
| 20260506133004 | 52 | 63 | 0.0 | 0.0 | 0.00 | 0.00 | 0.00 | 88 | 1020.6 |
| 20260506131503 | 52 | 68 | 0.0 | 0.0 | 0.00 | 0.00 | 0.00 | 88 | 1020.5 |
| 20260506130002 | 52 | 68 | 0.0 | 0.0 | 0.00 | 0.00 | 0.00 | 88 | 1020.3 |
| 20260506124500 | 52 | 246 | 0.0 | 0.0 | 0.00 | 0.00 | 0.00 | 88 | 1020.3 |
| 20260506123114 | 52 | 246 | 0.0 | 0.0 | 0.00 | 0.00 | 0.00 | 88 | 1020.3 |
| 20260506121612 | 52 | 246 | 0.0 | 0.0 | 0.00 | 0.00 | 0.00 | 88 | 1020.1 |
| 20260506120057 | 52 | 263 | 0.0 | 0.0 | 0.00 | 0.00 | 0.00 | 88 | 1020.1 |
| 20260506114557 | 52 | 311 | 0.0 | 0.0 | 0.00 | 0.00 | 0.00 | 88 | 1019.9 |
| 20260506113054 | 51 | 283 | 0.0 | 0.0 | 0.00 | 0.00 | 0.00 | 89 | 1019.6 |
| 20260506111551 | 51 | 307 | 0.0 | 0.0 | 0.00 | 0.00 | 0.00 | 89 | 1019.4 |
| 20260506110051 | 51 | 316 | 0.0 | 0.0 | 0.00 | 0.00 | 0.00 | 89 | 1019.3 |
| 20260506104549 | 50 | 316 | 0.0 | 0.0 | 0.00 | 0.00 | 0.00 | 87 | 1019.0 |
| 20260506103045 | 50 | 316 | 0.0 | 0.0 | 0.00 | 0.00 | 0.00 | 86 | 1018.9 |
| 20260506101544 | 51 | 316 | 0.0 | 0.0 | 0.00 | 0.00 | 0.00 | 86 | 1018.7 |
| 20260506100040 | 51 | 316 | 0.0 | 0.0 | 0.00 | 0.00 | 0.00 | 85 | 1018.6 |
| 20260506094538 | 52 | 316 | 0.0 | 0.0 | 0.00 | 0.00 | 0.00 | 85 | 1018.6 |
| 20260506093036 | 52 | 316 | 0.0 | 0.0 | 0.00 | 0.00 | 0.00 | 84 | 1018.5 |
| 20260506091532 | 53 | 316 | 0.0 | 0.0 | 0.00 | 0.00 | 0.00 | 83 | 1018.3 |
| 20260506090029 | 53 | 316 | 0.0 | 0.0 | 0.00 | 0.00 | 0.00 | 82 | 1018.1 |
| 20260506084535 | 54 | 316 | 0.0 | 0.0 | 0.00 | 0.00 | 0.00 | 81 | 1018.2 |
| 20260506083027 | 54 | 316 | 0.0 | 0.0 | 0.00 | 0.00 | 0.00 | 80 | 1018.0 |
| 20260506081520 | 55 | 316 | 0.0 | 0.0 | 0.00 | 0.00 | 0.00 | 79 | 1018.0 |
| 20260506073012 | 58 | 353 | 0.0 | 0.0 | 0.00 | 0.00 | 0.00 | 76 | 1017.8 |
| 20260506071510 | 58 | 270 | 0.0 | 0.0 | 0.00 | 0.00 | 0.00 | 76 | 1017.8 |
| 20260506061506 | 58 | 266 | 0.0 | 0.0 | 0.00 | 0.00 | 0.00 | 75 | 1017.5 |
| 20260506050117 | 58 | 78 | 0.0 | 0.0 | 0.00 | 0.00 | 0.00 | 78 | 1017.0 |
| 20260506044600 | 58 | 76 | 0.0 | 0.0 | 0.00 | 0.00 | 0.00 | 77 | 1016.9 |
| 20260506043100 | 58 | 76 | 0.0 | 0.0 | 0.00 | 0.00 | 0.00 | 77 | 1016.8 |
| 20260506041605 | 58 | 76 | 0.0 | 0.0 | 0.00 | 0.00 | 0.00 | 76 | 1016.6 |
| 20260506040058 | 59 | 76 | 0.0 | 0.0 | 0.00 | 0.00 | 0.00 | 75 | 1016.4 |
| 20260506034602 | 59 | 76 | 0.0 | 0.0 | 0.00 | 0.00 | 0.00 | 74 | 1016.2 |
| 20260506033057 | 60 | 76 | 0.0 | 0.0 | 0.00 | 0.00 | 0.00 | 72 | 1016.0 |
| 20260506031556 | 61 | 76 | 0.0 | 0.0 | 0.00 | 0.00 | 0.00 | 71 | 1016.0 |
| 20260506030057 | 61 | 76 | 0.0 | 0.0 | 0.00 | 0.00 | 0.00 | 70 | 1015.8 |
| 20260506024606 | 62 | 77 | 0.0 | 0.0 | 0.00 | 0.00 | 0.00 | 68 | 1015.6 |
| 20260506023108 | 63 | 1 | 0.0 | 0.0 | 0.00 | 0.00 | 0.00 | 67 | 1015.7 |
| 20260506021553 | 63 | 324 | 0.0 | 0.0 | 0.00 | 0.00 | 0.00 | 66 | 1015.7 |
| 20260506020056 | 64 | 332 | 0.0 | 0.0 | 0.00 | 0.00 | 0.00 | 65 | 1015.7 |
| 20260506014553 | 64 | 25 | 0.0 | 0.0 | 0.00 | 0.00 | 0.00 | 66 | 1015.6 |
| 20260506013056 | 64 | 328 | 0.0 | 0.0 | 0.00 | 0.00 | 0.00 | 66 | 1015.6 |
| 20260506011552 | 63 | 93 | 0.0 | 0.0 | 0.00 | 0.00 | 0.00 | 67 | 1015.5 |
| 20260506010051 | 63 | 70 | 0.0 | 0.0 | 0.00 | 0.00 | 0.00 | 66 | 1015.4 |
| 20260506004557 | 64 | 96 | 0.0 | 0.0 | 0.00 | 0.00 | 0.00 | 66 | 1015.5 |
| 20260506003052 | 64 | 22 | 0.0 | 1.0 | 0.00 | 0.00 | 0.00 | 65 | 1015.5 |
| 20260506001555 | 63 | 1 | 0.0 | 0.0 | 0.00 | 0.00 | 0.00 | 67 | 1015.5 |
| 20260506000056 | 63 | 139 | 0.0 | 0.0 | 0.00 | 0.00 | 0.00 | 67 | 1015.6 |
| 20260505234550 | 64 | 81 | 0.0 | 0.0 | 0.00 | 0.00 | 0.00 | 65 | 1015.9 |
| 20260505233051 | 63 | 254 | 0.0 | 0.0 | 0.00 | 0.00 | 0.00 | 67 | 1016.1 |
| 20260505231546 | 63 | 309 | 0.0 | 0.0 | 0.00 | 0.00 | 0.00 | 67 | 1016.1 |
| 20260505230108 | 62 | 358 | 0.0 | 0.0 | 0.00 | 0.00 | 0.00 | 68 | 1016.2 |
| 20260505224541 | 62 | 3 | 0.0 | 0.0 | 0.00 | 0.00 | 0.00 | 68 | 1016.2 |
| 20260505223043 | 62 | 326 | 0.0 | 0.0 | 0.00 | 0.00 | 0.00 | 68 | 1016.4 |
| 20260505221544 | 62 | 343 | 0.0 | 0.0 | 0.00 | 0.00 | 0.00 | 70 | 1016.4 |
| 20260505220050 | 61 | 353 | 0.0 | 0.0 | 0.00 | 0.00 | 0.00 | 68 | 1016.5 |
| 20260505214538 | 62 | 313 | 0.0 | 0.0 | 0.00 | 0.00 | 0.00 | 67 | 1016.5 |
| 20260505213035 | 62 | 354 | 0.0 | 0.0 | 0.00 | 0.00 | 0.00 | 68 | 1016.6 |
| 20260505211533 | 61 | 359 | 0.0 | 0.0 | 0.00 | 0.00 | 0.00 | 69 | 1016.8 |